Change the Weather History Date:

Thursday, January 16, 2014

  Actual Average (KN60) Record (KN60)
Temperature  
Mean Temperature 22 °F -  
Max Temperature 35 °F 16 °F 30 °F (2015)
Min Temperature 8 °F 0 °F 21 °F (2015)
Degree Days  
Heating Degree Days 44    
Moisture  
Dew Point 12 °F    
Average Humidity 68    
Maximum Humidity 86    
Minimum Humidity 58    
Precipitation  
Precipitation 0.50 in - - ()
Sea Level Pressure  
Sea Level Pressure 30.02 in    
Wind  
Wind Speed 27 mph (NW)    
Max Wind Speed 41 mph    
Max Gust Speed 63 mph    
Visibility 10 miles    
Events Snow    
Averages and records for this station are not official NWS values.
T = Trace of Precipitation, MM = Missing Value Source: NWS Daily Summary

Daily Weather History Graph

Daily Weather History Graph

Search for Another Location

Airport or City:

Trip Planner

Search our weather history database for the weather conditions in past years. The results will help you decide how hot, cold, wet, or windy it might be!

Date:

Astronomy

Jan. 16, 2014 Rise Set
Actual Time 8:27 AM CST 5:24 PM CST
Civil Twilight 7:53 AM CST 5:59 PM CST
Nautical Twilight 7:15 AM CST 6:37 PM CST
Astronomical Twilight 6:39 AM CST 7:13 PM CST
Moon 6:25 PM CST (1/16) 8:16 AM CST (1/16)
Length of Visible Light 10h 05m
Length of Day
8h 56m
Full, 100% of the Moon is Illuminated
Jan 16
Full
Jan 23
Last Quarter
Jan 30
New
Feb 6
First Quarter
Feb 14
Full

Hourly Weather History & Observations

Time (CST) Temp. Windchill Dew Point Humidity Pressure Visibility Wind Dir Wind Speed Gust Speed Precip Events Conditions
12:15 AM 35.6 °F 21.1 °F 24.8 °F 65% 29.66 in 10.0 mi NW 38.0 mph 49.5 mph N/A Snow Light Snow
12:35 AM 35.6 °F 21.1 °F 24.8 °F 65% 29.67 in 10.0 mi NW 38.0 mph 46.0 mph 0.01 in Snow Light Snow
12:55 AM 35.6 °F 21.7 °F 24.8 °F 65% 29.68 in 10.0 mi NW 34.5 mph 51.8 mph 0.01 in Snow Light Snow
1:15 AM 35.6 °F 22.7 °F 26.6 °F 70% 29.68 in 10.0 mi NW 28.8 mph 40.3 mph N/A Snow Light Snow
1:35 AM 33.8 °F 20.3 °F 24.8 °F 70% 29.69 in 10.0 mi NW 28.8 mph 36.8 mph N/A Snow Light Snow
1:55 AM 33.8 °F 19.9 °F 24.8 °F 70% 29.70 in 10.0 mi NW 31.1 mph 48.3 mph N/A Snow Light Snow
2:15 AM 33.8 °F 19.6 °F 24.8 °F 70% 29.71 in 10.0 mi NW 32.2 mph 48.3 mph N/A Snow Light Snow
2:35 AM 33.8 °F 19.9 °F 24.8 °F 70% 29.72 in 10.0 mi NW 31.1 mph 44.9 mph N/A Snow Light Snow
2:55 AM 32.0 °F 17.4 °F 23.0 °F 69% 29.73 in 10.0 mi NW 31.1 mph 44.9 mph 0.01 in Snow Light Snow
3:15 AM 32.0 °F 17.2 °F 23.0 °F 69% 29.73 in 10.0 mi NW 32.2 mph 42.6 mph N/A Snow Light Snow
3:35 AM 32.0 °F 17.2 °F 23.0 °F 69% 29.74 in 10.0 mi NW 32.2 mph 40.3 mph N/A   Mostly Cloudy
3:55 AM 32.0 °F 17.9 °F 23.0 °F 69% 29.75 in 10.0 mi NW 28.8 mph 39.1 mph N/A   Clear
4:15 AM 32.0 °F 17.9 °F 23.0 °F 69% 29.74 in 10.0 mi NW 28.8 mph 41.4 mph N/A   Partly Cloudy
4:35 AM 32.0 °F 17.4 °F 23.0 °F 69% 29.74 in 10.0 mi NW 31.1 mph 43.7 mph N/A Snow Light Snow
4:55 AM 32.0 °F 16.7 °F 21.2 °F 64% 29.74 in 10.0 mi NW 34.5 mph 43.7 mph N/A Snow Light Snow
5:15 AM 32.0 °F 16.7 °F 21.2 °F 64% 29.74 in 10.0 mi NW 34.5 mph 47.2 mph N/A Snow Light Snow
5:35 AM 32.0 °F 16.5 °F 21.2 °F 64% 29.74 in 10.0 mi NW 35.7 mph 47.2 mph N/A Snow Light Snow
5:55 AM 32.0 °F 16.5 °F 23.0 °F 69% 29.75 in 10.0 mi NW 35.7 mph 51.8 mph 0.01 in Snow Light Snow
6:15 AM 32.0 °F 15.8 °F 23.0 °F 69% 29.76 in 10.0 mi NW 40.3 mph 51.8 mph N/A Snow Light Snow
6:35 AM 32.0 °F 17.0 °F 23.0 °F 69% 29.77 in 10.0 mi NW 33.4 mph 47.2 mph 0.01 in Snow Light Snow
6:55 AM 30.2 °F 13.1 °F 24.8 °F 80% 29.81 in 1.8 mi NNW 41.4 mph 54.1 mph 0.25 in Snow Light Snow
7:15 AM 26.6 °F 8.7 °F 23.0 °F 86% 29.83 in 1.8 mi NNW 38.0 mph 49.5 mph 0.19 in Snow Light Snow
7:35 AM 24.8 °F 5.5 °F 15.8 °F 69% 29.86 in 10.0 mi NNW 41.4 mph 63.3 mph 0.22 in Snow Light Snow
7:55 AM 23.0 °F 4.4 °F 14.0 °F 68% 29.90 in 10.0 mi NNW 34.5 mph 55.2 mph 0.22 in   Scattered Clouds
8:15 AM 19.4 °F 0.5 °F 10.4 °F 68% 29.93 in 10.0 mi NNW 29.9 mph 50.6 mph N/A Snow Light Snow
8:35 AM 17.6 °F -3.6 °F 6.8 °F 63% 29.95 in 10.0 mi NNW 36.8 mph 47.2 mph N/A Snow Light Snow
8:55 AM 15.8 °F -5.5 °F 6.8 °F 68% 29.99 in 10.0 mi NNW 34.5 mph 43.7 mph N/A   Mostly Cloudy
9:15 AM 15.8 °F -4.1 °F 5.0 °F 62% 30.02 in 10.0 mi NNW 28.8 mph 42.6 mph N/A   Overcast
9:35 AM 15.8 °F -3.4 °F 5.0 °F 62% 30.04 in 10.0 mi North 26.5 mph 46.0 mph N/A   Mostly Cloudy
9:55 AM 14.0 °F -7.1 °F 5.0 °F 67% 30.06 in 10.0 mi NNW 31.1 mph 38.0 mph N/A   Mostly Cloudy
10:15 AM 14.0 °F -4.7 °F 5.0 °F 67% 30.09 in 10.0 mi NNW 23.0 mph 36.8 mph N/A   Mostly Cloudy
10:35 AM 14.0 °F -6.2 °F 3.2 °F 62% 30.10 in 10.0 mi NNW 27.6 mph 34.5 mph N/A   Partly Cloudy
10:55 AM 14.0 °F -6.8 °F 5.0 °F 67% 30.11 in 10.0 mi NNW 29.9 mph 38.0 mph N/A   Clear
11:15 AM 15.8 °F -4.1 °F 5.0 °F 62% 30.12 in 10.0 mi NNW 28.8 mph 32.2 mph N/A   Clear
11:35 AM 15.8 °F -3.7 °F 3.2 °F 58% 30.13 in 10.0 mi NNW 27.6 mph 38.0 mph N/A   Clear
11:55 AM 15.8 °F -0.2 °F 5.0 °F 62% 30.14 in 10.0 mi NNW 17.3 mph 35.7 mph N/A   Clear
12:15 PM 15.8 °F -1.9 °F 5.0 °F 62% 30.15 in 10.0 mi NNW 21.9 mph 36.8 mph N/A   Clear
12:35 PM 15.8 °F -2.3 °F 5.0 °F 62% 30.14 in 10.0 mi NNW 23.0 mph 33.4 mph N/A   Clear
12:55 PM 17.6 °F 1.7 °F 5.0 °F 58% 30.16 in 10.0 mi NNW 18.4 mph 32.2 mph N/A   Clear
1:15 PM 17.6 °F 0.1 °F 5.0 °F 58% 30.16 in 10.0 mi NNW 23.0 mph 34.5 mph N/A   Clear
1:35 PM 17.6 °F -0.3 °F 5.0 °F 58% 30.16 in 10.0 mi NNW 24.2 mph 31.1 mph N/A   Clear
1:55 PM 17.6 °F 1.3 °F 6.8 °F 63% 30.17 in 10.0 mi NNW 19.6 mph 28.8 mph N/A   Clear
2:55 PM 17.6 °F 3.2 °F 6.8 °F 63% 30.19 in 10.0 mi NW 15.0 mph 20.7 mph N/A   Clear
3:15 PM 17.6 °F 2.2 °F 6.8 °F 63% 30.20 in 10.0 mi NNW 17.3 mph 23.0 mph N/A   Clear
3:35 PM 17.6 °F 3.2 °F 6.8 °F 63% 30.21 in 10.0 mi NNW 15.0 mph 21.9 mph N/A   Clear
3:55 PM 17.6 °F 3.7 °F 6.8 °F 63% 30.21 in 8.0 mi NW 13.8 mph 20.7 mph N/A   Clear
4:15 PM 17.6 °F 2.2 °F 6.8 °F 63% 30.22 in 10.0 mi NW 17.3 mph 21.9 mph N/A   Clear
4:35 PM 17.6 °F 3.7 °F 6.8 °F 63% 30.22 in 10.0 mi NW 13.8 mph 18.4 mph N/A   Clear
4:55 PM 17.6 °F 5.0 °F 6.8 °F 63% 30.22 in 10.0 mi NW 11.5 mph 16.1 mph N/A   Clear
5:15 PM 17.6 °F 6.4 °F 6.8 °F 63% 30.23 in 10.0 mi WNW 9.2 mph - N/A   Clear
5:35 PM 15.8 °F 4.2 °F 6.8 °F 68% 30.23 in 10.0 mi WNW 9.2 mph - N/A   Clear
5:55 PM 15.8 °F 6.1 °F 6.8 °F 68% 30.23 in 10.0 mi WSW 6.9 mph - N/A   Clear
6:15 PM 15.8 °F 5.1 °F 6.8 °F 68% 30.23 in 10.0 mi SW 8.1 mph - N/A   Clear
6:35 PM 15.8 °F 4.2 °F 6.8 °F 68% 30.23 in 10.0 mi SW 9.2 mph - N/A   Clear
6:55 PM 15.8 °F 4.2 °F 6.8 °F 68% 30.23 in 10.0 mi WSW 9.2 mph - N/A   Clear
7:15 PM 15.8 °F 5.1 °F 6.8 °F 68% 30.23 in 10.0 mi West 8.1 mph - N/A   Clear
7:35 PM 17.6 °F - 6.8 °F 63% 30.22 in 10.0 mi Calm Calm - N/A   Clear
7:55 PM 17.6 °F 2.7 °F 12.2 °F 79% 30.22 in 10.0 mi NNW 16.1 mph 21.9 mph N/A   Scattered Clouds
8:15 PM 17.6 °F 5.7 °F 10.4 °F 73% 30.21 in 10.0 mi NNW 10.4 mph - N/A   Mostly Cloudy
8:35 PM 17.6 °F 10.7 °F 10.4 °F 73% 30.22 in 10.0 mi WSW 4.6 mph - N/A   Overcast
8:55 PM 17.6 °F 10.7 °F 10.4 °F 73% 30.21 in 10.0 mi SSW 4.6 mph - N/A   Overcast
9:15 PM 17.6 °F 12.3 °F 10.4 °F 73% 30.21 in 10.0 mi NW 3.5 mph - N/A   Scattered Clouds
9:35 PM 14.0 °F 8.2 °F 8.6 °F 79% 30.20 in 10.0 mi West 3.5 mph - N/A   Clear
9:55 PM 15.8 °F 10.2 °F 8.6 °F 73% 30.20 in 10.0 mi West 3.5 mph - N/A   Clear
10:15 PM 10.4 °F 2.2 °F 5.0 °F 79% 30.19 in 10.0 mi SSE 4.6 mph - N/A   Clear
10:35 PM 8.6 °F 0.1 °F 5.0 °F 85% 30.18 in 10.0 mi South 4.6 mph - N/A   Clear
10:55 PM 8.6 °F -1.3 °F 5.0 °F 85% 30.17 in 10.0 mi SSE 5.8 mph - N/A   Clear
11:15 PM 8.6 °F -1.3 °F 5.0 °F 85% 30.16 in 10.0 mi SSE 5.8 mph - N/A   Clear
11:35 PM 8.6 °F 2.0 °F 5.0 °F 85% 30.16 in 10.0 mi South 3.5 mph - N/A   Clear
11:55 PM 8.6 °F - 5.0 °F 85% 30.16 in 10.0 mi Calm Calm - N/A   Clear